Regional Weather Roundup
Issued by NWS

Home | Current Version | Previous Version | Graphics & Text | Print | Product List | Glossary On
Versions: 1 2 3 4 5 6 7 8 9 10 11 12 13 14 15 16 17 18 19 20 21 22 23 24 25 26 27 28 29 30 31 32 33 34 35 36 37 38 39 40 41 42 43 44 45 46 47 48 49 50
038
ASUS43 KLMK 250810
RWRKY
KENTUCKY REGIONAL WEATHER ROUNDUP
NATIONAL WEATHER SERVICE LOUISVILLE KY
400 AM EDT WED MAY 25 2016

NOTE "FAIR" INDICATES FEW OR NO CLOUDS BELOW 12,000 FEET
WITH NO SIGNIFICANT WEATHER AND/OR OBSTRUCTIONS TO VISIBILITY.

KYZ001>023-026-027-061>063-070>075-250900-
WESTERN AND SOUTH CENTRAL KENTUCKY

CITY           SKY/WX    TMP DP  RH WIND       PRES   REMARKS
PADUCAH        CLOUDY    65  62  90 SE5       30.02F
HENDERSON      CLOUDY    64  57  77 CALM      30.04R
OWENSBORO      CLOUDY    69  62  78 CALM      30.06R
HOPKINSVILLE   CLOUDY    70  62  74 CALM      30.04R
BOWLING GREEN  CLOUDY    67  61  81 NE3       30.07S
GLASGOW        CLOUDY    65  55  68 CALM      30.09S
$$

KYZ024-025-028>034-038-045-046-053-250900-
NORTH CENTRAL KENTUCKY

CITY           SKY/WX    TMP DP  RH WIND       PRES   REMARKS
LOUISVILLE/SDF MOCLDY    69  55  60 SE7       30.07S
LOUISVILLE/LOU MOCLDY    69  57  65 CALM      30.08S
FORT KNOX      CLOUDY    65  58  75 E3        30.06S
$$

KYZ035>037-039>044-047>052-055>060-089>105-250900-
NORTHEAST KENTUCKY

CITY           SKY/WX    TMP DP  RH WIND       PRES   REMARKS
LEXINGTON      PTCLDY    63  50  62 SE6       30.12S
COVINGTON      MOCLDY    62  50  64 S6        30.11R
FRANKFORT      CLOUDY    63  52  67 SE5       30.10R
$$

KYZ054-064>069-076>088-106>120-250900-
SOUTHEAST KENTUCKY

CITY           SKY/WX    TMP DP  RH WIND       PRES   REMARKS
JACKSON        PTCLDY    61  47  59 S3        30.16S
LONDON         CLEAR     58  49  72 CALM      30.15S
SOMERSET       PTCLDY    57  52  82 CALM      30.14S
MIDDLESBORO    CLEAR     52  51  97 CALM      30.19F
MONTICELLO     SUNNY     62  55  77 NE6       30.14S
$$





USA.gov is the U.S. government's official web portal to all federal, state and local government web resources and services.